Weather Roundup
Issued by NWS Chicago, IL

Home | Current Version | Previous Version | Text Only | Print | Product List | Glossary On
Versions: 1 2 3 4 5 6 7 8 9 10 11 12 13 14 15 16 17 18 19 20 21 22 23 24 25 26 27 28 29 30 31 32 33 34 35 36 37 38 39 40 41 42 43 44 45 46 47 48 49 50
000
NZUS59 KLOT 240412
HRRLOT

CHICAGO AREA WEATHER ROUNDUP
NATIONAL WEATHER SERVICE CHICAGO/ROMEOVILLE IL
1000 PM CST THU FEB 23 2017

NOTE: "FAIR" INDICATES FEW OR NO CLOUDS BELOW 12,000 FEET WITH NO
SIGNIFICANT WEATHER AND/OR OBSTRUCTIONS TO VISIBILITY.

* THESE STATIONS ARE NOT UNDER NWS QUALITY CONTROL. THEY ALSO MAY NOT
  REPORT WEATHER SUCH AS PRECIPITATION OR FOG.

ILZ005-006-012>014-019>023-240500-
NORTHEAST ILLINOIS

CITY           SKY/WX    TMP DP  RH WIND       PRES   REMARKS
OHARE          CLOUDY    39  36  89 NE16      29.72F
MIDWAY         LGT RAIN  40  37  89 N12       29.73S
AURORA         CLOUDY    39  36  89 NE16      29.69F
LANSING*       CLOUDY    39  39 100 NE9       29.72F
JOLIET*        CLOUDY    41  39  94 E12G17    29.68F
WAUKEGAN       LGT RAIN  37  35  92 NE12G24   29.73F
DUPAGE AIRPORT LGT RAIN  38  34  85 NE15      29.69F
WHEELING       CLOUDY    37  35  92 NE12G20   29.74F
KANKAKEE*      CLOUDY    40  38  94 NE7       29.68F
MORRIS*        CLOUDY    40  38  93 E10       29.67F
LEWIS AIRPORT* CLOUDY    39  39 100 E14       29.68F FOG
NORTHERLY ISL    N/A     38  37  97 N12         N/A
$$

WIZ051-052-058>065-066-070>072-240500-
SOUTHEAST WISCONSIN

CITY           SKY/WX    TMP DP  RH WIND       PRES   REMARKS
MILWAUKEE      LGT RAIN  37  33  85 NE15G29   29.77F
KENOSHA*       RAIN      37  34  89 NE18G28   29.73F FOG
RACINE*        LGT RAIN  37  34  89 NE18      29.76F
WAUKESHA       LGT RAIN  32  32 100 NE17G23   29.77F WCI  21
WEST BEND      LGT SNOW  32  32 100 NE10      29.81F WCI  24
$$

INZ001>003-010>013-019-020-240500-
NORTHWEST INDIANA

CITY           SKY/WX    TMP DP  RH WIND       PRES   REMARKS
GARY*          CLOUDY    39  38  96 NE7       29.73F
MICHIGAN CITY* NOT AVBL
RENSSELAER*    NOT AVBL
VALPARAISO     CLOUDY    42  40  92 NE7       29.71F FOG
$$

LMZ740>746-240500-
SOUTHERN LAKE MICHIGAN

STATION/POSITION TIME  SKY/WX   TEMP WIND        PRES    VSBY
                                AIR  DIR/SP/G
                 (UTC)          (F)  (DEG/KT/KT) (MB)    (MI)
HARRISON CRIB    0340            38   10/ 13/ 13   N/A
BURNHAM HARBOR   0400            38  360/  8/ 13   N/A
CALUMET HARBOR   0348            37  360/  7/ 11   N/A
BURNS HARBOR     0340            37   70/ 10/ 11 1006.8F
MICHIGAN CITY    0340            36   20/  8/  9   N/A
$$

ABBREVIATIONS USED IN REMARKS
   TC - TEMPERATURE IN CELSIUS
  WCI - WIND CHILL INDEX
   HX - HEAT INDEX
  VSB - VISIBILITY
$$



USA.gov is the U.S. government's official web portal to all federal, state and local government web resources and services.